Location: Bois de la Silve
(44.4667°N, 6.7833°E)
Time: 00:28:21
(UTC+00:00)

USA 238 DEB - Pass Details

Date: 02 November 2020
Orbit: 1001 x 1211 km, 63.5° (Epoch: 22 November)

Event Time Altitude Azimuth Distance (km) Brightness Sun altitude
Exits shadow 04:27:32 15° 321° (NW) 2,567 5.3 -19.0°
Maximum altitude 04:30:04 18° 347° (NNW) 2,410 5.4 -18.6°
Drops below altitude 10° 04:34:38 10° 28° (NNE) 2,987 6.3 -17.8°
Sets 04:38:31 0° 47° (NE) 3,991 7.3 -17.1°
